STARLINK-6158, 56375

Orbit data source: Space-Track

STARLINK-6158, 56375 is a payload satellite owned by SpaceX/Seattle (US) in LEO that was launched on Thu, 04 May 2023 UTC via an FALCON 9 launch vehicle from the Air Force Eastern Test Range (AFETR). Payload-class satellites include a variety of spacecraft equipped with specific instruments for various scientific and technological missions. These include communications satellites like Starlink; space stations such as the ISS; scientific satellites like the Hubble; Earth observation satellites from companies like Planet Labs, Umbra, and HawkEye 360; GPS; miniature CubeSats for education and research; and military/defense satellites.

Loading next visibility...
Identifier
56375, 2023-061B
Orbit
LEO
Country
Flag of USUS
Related business
Manufacturer
SpaceX/Seattle
Mission
Operational Commercial Communications
Bus & Motor
STARLINK, Unknown motor
Mass
305 kg wet, ~290 kg dry
Launch date (UTC)
2023-05-04 (3 years ago)
Launch vehicle
FALCON 9
Launch site
Air Force Eastern Test Range (AFETR)
Object type
Payload
Rocket body
Debris
Shape & HBR
Box + 1 Pan, 10.1 m
Radar Cross Section
11.087 m², Large (>1 m²)

Expand to show TLE details & history
Last TLE update: 2 days ago

TLE from 2 days ago
0 STARLINK-6158
1 56375U 23061B   26171.16208757  .00000282  00000-0  19777-4 0  9998
2 56375  43.0040 339.0066 0001133 271.2402  88.8320 15.27579199172422
Epoch: 2026-06-20T03:53Z
TLE epoch observation values (Epoch: 2026-06-20T03:53:24.366Z)
Latitude
0.00001°
Longitude
12.27441°
Altitude
482.812 km
Speed
7.626 km/s
True Right ascension
22h 36m 01s
True Declination
0° 00' 00"
Sunlit
Object was in daylight at epoch
Visualization orbit readout
Latitude
Unknown
Longitude
Unknown
Altitude
Unknown
Speed
Unknown
Apparent Right ascension
Unknown
Apparent Declination
Unknown
Sunlit
N/A
Visualization observer readout
Local Sidereal Time
21:25:41
Azimuth
Unknown
Elevation
Unknown
Doppler factor
Unknown
Orbital elements
Apogee altitude
485.774 km
Perigee altitude
484.218 km
Semi-major axis
6,863.133 km
Eccentricity
0.00011
Inclination
43.004°
RAAN
339.0066°
Arg. of periapsis
271.2402°
True anomaly
88.84498°
Mean anomaly
88.832°
Eccentric anomaly
88.83849°
Mean motion
3.81733 °/min
Orbital period
94.31 mins
BSTAR
0.000019777
Loading maneuver chart data...
Computing Atmospheric mass density...
Loading historical data...
Loading historical data...
Loading historical data...
Loading historical data...
Loading historical data...
Loading historical data...
Loading historical data...

Documentation

Showing up to 5 results
|